Torna al catalogo

COSMOS 1275 DEB

AttivoPO
NORAD 13484·DEBRIS·🇷🇺 Russia

Lanciato Jun 4, 1981 da Plesetsk Cosmodrome

Loading…

Prossimi Passaggi (prossime 24 ore)

TLE

AggiornatoSource: Space-Track

Epoca: Sep 13, 2026, 12:26 UTC

1 13484U 81053GE  26256.51819082  .00000922  00000-0  57937-3 0  9999
2 13484  82.9150 279.3469 0030410  95.1403  25.2092 14.03173705238236

Traccia COSMOS 1275 DEB in tempo reale con AllMySat

Download on the App Store